Flag for Switzerland Weather past 2 weeks in Stans, Nidwalden, Switzerland

Now
42 °F

Quite cool.


Feels Like: 38 °F
Forecast: 40 / 47 °F
Wind: 6 mph from Northeast

Location: Giswil

Current Time: Mar 1, 2015 at 4:34:51 PM

Latest Report: Mar 1, 2015 at 3:00 PM


Visibility: N/A

Pressure: 29.91 "Hg

Humidity: 87%

Dew point: 38 °F

Location of StansLocation

Historic Weather in Stans — Graph

°F

Stans temperature yesterday

Maximum temperature yesterday: 40 °F (at 5:00 PM)
Minimum temperature yesterday: 27 °F (at 10:00 PM)
Average temperature yesterday: 35 °F

Past Weeks' High & Low Weather Summary

 TemperatureHumidityPressure
High49 °F (Feb 20, 4:00 PM)100% (Feb 14, 7:00 PM)30.72 "Hg (Feb 14, 7:00 PM)
Low20 °F (Feb 20, 6:00 AM)31% (Feb 26, 4:00 PM)29.59 "Hg (Feb 21, 3:00 PM)
Average33 °F92%30.10 "Hg
* Reported Feb 14 3:00 PM — Mar 1 3:00 PM, Stans, Weather by CustomWeather, © 2015

Note: Actual official high and low records may vary slightly from our data, if they occured in-between our weather recording intervals... More about our weather records

Advertising

Stans weather history for previous 24 hours

 ConditionsComfort  
Time TempWeatherWind HumidityBarometerVisibility
3:00 PM
Sun, Mar 1
42 °FQuite cool.6 mph87%29.91 "HgN/A
2:00 PM40 °FChilly.1 mph88%29.95 "HgN/A
1:00 PM39 °FChilly.1 mph88%29.99 "HgN/A
12:00 PM38 °FChilly.2 mph89%29.99 "HgN/A
11:00 AM37 °FChilly.2 mph91%30.01 "HgN/A
10:00 AM36 °FChilly.6 mph91%30.01 "HgN/A
9:00 AM35 °FChilly.3 mph94%30.02 "HgN/A
8:00 AM33 °FChilly.1 mph96%30.02 "HgN/A
7:00 AM32 °FChilly.1 mph93%30.04 "HgN/A
6:00 AM32 °FChilly.2 mph94%30.03 "HgN/A
5:00 AM31 °FChilly.2 mph95%30.05 "HgN/A
3:00 AM28 °FChilly.1 mph96%30.07 "HgN/A
2:00 AM28 °FChilly.2 mph96%30.09 "HgN/A
1:00 AM27 °FChilly.2 mph96%30.11 "HgN/A
12:00 AM28 °FChilly.1 mph94%30.12 "HgN/A
11:00 PM
Sat, Feb 28
28 °FChilly.1 mph95%30.14 "HgN/A
10:00 PM27 °FChilly.2 mph94%30.18 "HgN/A
9:00 PM29 °FChilly.2 mph96%30.18 "HgN/A
8:00 PM30 °FChilly.2 mph96%30.16 "HgN/A
7:00 PM33 °FChilly.2 mph92%30.16 "HgN/A
6:00 PM38 °FChilly.1 mph79%30.13 "HgN/A
5:00 PM40 °FQuite cool.1 mph70%30.12 "HgN/A
4:00 PM40 °FChilly.No wind69%30.14 "HgN/A
Weather by CustomWeather, © 2015

See weather overviewHow to use our weather pages